TimeEDT,TemperatureF,Dew PointF,Humidity,Sea Level PressureIn,VisibilityMPH,Wind Direction,Wind SpeedMPH,Gust SpeedMPH,PrecipitationIn,Events,Conditions,WindDirDegrees,DateUTC
12:15 AM,51.8,46.4,82,30.29,10.0,Calm,Calm,-,N/A,,Clear,0,2013-09-28 04:15:00
12:35 AM,50.0,44.6,82,30.29,10.0,Calm,Calm,-,N/A,,Clear,0,2013-09-28 04:35:00
12:55 AM,50.0,44.6,82,30.29,10.0,Calm,Calm,-,N/A,,Clear,0,2013-09-28 04:55:00
1:15 AM,51.8,46.4,82,30.29,10.0,NE,3.5,-,N/A,,Clear,50,2013-09-28 05:15:00
1:35 AM,51.8,46.4,82,30.30,10.0,Calm,Calm,-,N/A,,Clear,0,2013-09-28 05:35:00
1:55 AM,50.0,44.6,82,30.30,10.0,NNW,3.5,-,N/A,,Clear,340,2013-09-28 05:55:00
2:15 AM,48.2,44.6,87,30.29,10.0,North,3.5,-,N/A,,Clear,10,2013-09-28 06:15:00
2:35 AM,48.2,42.8,82,30.29,10.0,Calm,Calm,-,N/A,,Clear,0,2013-09-28 06:35:00
2:55 AM,46.4,42.8,87,30.29,10.0,North,3.5,-,N/A,,Clear,360,2013-09-28 06:55:00
3:15 AM,48.2,42.8,82,30.29,10.0,NNE,3.5,-,N/A,,Clear,30,2013-09-28 07:15:00
3:35 AM,48.2,42.8,82,30.29,10.0,Calm,Calm,-,N/A,,Clear,0,2013-09-28 07:35:00
3:55 AM,46.4,41.0,81,30.28,10.0,NNE,3.5,-,N/A,,Clear,20,2013-09-28 07:55:00
4:15 AM,48.2,42.8,82,30.29,10.0,NNE,3.5,-,N/A,,Clear,20,2013-09-28 08:15:00
4:35 AM,46.4,42.8,87,30.29,10.0,Calm,Calm,-,N/A,,Clear,0,2013-09-28 08:35:00
4:55 AM,46.4,42.8,87,30.29,10.0,NNE,5.8,-,N/A,,Clear,20,2013-09-28 08:55:00
5:15 AM,48.2,42.8,82,30.30,10.0,NNE,4.6,-,N/A,,Clear,30,2013-09-28 09:15:00
5:35 AM,48.2,44.6,87,30.30,10.0,NNE,4.6,-,N/A,,Clear,30,2013-09-28 09:35:00
5:50 AM,50.0,44.6,82,30.30,10.0,NE,3.5,-,N/A,,Clear,50,2013-09-28 09:50:00
6:50 AM,48.2,42.8,82,30.31,10.0,NNE,4.6,-,N/A,,Clear,20,2013-09-28 10:50:00
7:48 AM,51.8,46.4,82,30.33,10.0,NNE,5.8,-,N/A,,Clear,20,2013-09-28 11:48:00
8:45 AM,55.4,48.2,77,30.34,10.0,NE,8.1,-,N/A,,Clear,50,2013-09-28 12:45:00
9:55 AM,60.8,51.8,72,30.34,10.0,NE,5.8,-,N/A,,Clear,40,2013-09-28 13:55:00
10:50 AM,62.6,51.8,68,30.34,10.0,East,5.8,-,N/A,,Clear,80,2013-09-28 14:50:00
11:45 AM,66.2,53.6,64,30.34,10.0,ESE,5.8,-,N/A,,Scattered Clouds,110,2013-09-28 15:45:00
12:45 PM,68.0,53.6,60,30.32,10.0,ESE,3.5,-,N/A,,Scattered Clouds,110,2013-09-28 16:45:00
1:45 PM,69.8,51.8,53,30.31,10.0,Calm,Calm,-,N/A,,Scattered Clouds,0,2013-09-28 17:45:00
2:45 PM,69.8,51.8,53,30.29,10.0,East,5.8,-,N/A,,Scattered Clouds,100,2013-09-28 18:45:00
3:50 PM,71.6,51.8,50,30.30,10.0,ESE,5.8,-,N/A,,Scattered Clouds,120,2013-09-28 19:50:00
4:45 PM,68.0,50.0,52,30.29,10.0,ESE,5.8,-,N/A,,Partly Cloudy,120,2013-09-28 20:45:00
5:45 PM,68.0,50.0,52,30.28,10.0,East,3.5,-,N/A,,Partly Cloudy,80,2013-09-28 21:45:00
6:45 PM,64.4,51.8,64,30.25,10.0,Calm,Calm,-,N/A,,Clear,0,2013-09-28 22:45:00
7:45 PM,57.2,50.0,77,30.27,10.0,Calm,Calm,-,N/A,,Clear,0,2013-09-28 23:45:00
8:55 PM,53.6,48.2,82,30.28,10.0,Calm,Calm,-,N/A,,Clear,0,2013-09-29 00:55:00
9:15 PM,53.6,48.2,82,30.28,10.0,Calm,Calm,-,N/A,,Clear,0,2013-09-29 01:15:00
9:35 PM,53.6,48.2,82,30.29,10.0,SE,5.8,-,N/A,,Clear,130,2013-09-29 01:35:00
9:55 PM,53.6,48.2,82,30.29,10.0,Calm,Calm,-,N/A,,Clear,0,2013-09-29 01:55:00
10:15 PM,53.6,48.2,82,30.29,10.0,Calm,Calm,-,N/A,,Clear,0,2013-09-29 02:15:00
10:35 PM,53.6,48.2,82,30.29,10.0,Calm,Calm,-,N/A,,Clear,0,2013-09-29 02:35:00
10:55 PM,51.8,46.4,82,30.28,10.0,Calm,Calm,-,N/A,,Clear,0,2013-09-29 02:55:00
11:15 PM,53.6,48.2,82,30.28,10.0,Calm,Calm,-,N/A,,Clear,0,2013-09-29 03:15:00
11:35 PM,51.8,46.4,82,30.28,10.0,Calm,Calm,-,N/A,,Clear,0,2013-09-29 03:35:00
11:55 PM,51.8,46.4,82,30.27,10.0,Calm,Calm,-,N/A,,Clear,0,2013-09-29 03:55:00